[[{"header":{"parameterUnit":"m.s-1","parameterCategory":1,"la1":30.2991,"la2":30.254,"lo1":-89.0895,"lo2":-89.0444,"dy":0.0017,"dx":0.0017,"nx":28,"ny":28,"refTime":"2024-05-25T09:00:00:Z","depth":0,"parameterNumber":2,"parameterNumberName":"U-component_of_WINDS"},"data":[0,0,0,0,0,0,0,0,0,0,0,0,0,0,0,0,0,0,0,0,0,0,0,0,0,0,0,0,0,0,0,0,0,0,0,0,0,0,0,0,0,0,0,0,0,0,0,0,0,0,0,0,0,0,0,0,0,0,0.1297,0.1297,0,0.1302,0.1302,0.1302,0.1349,0.135,0.1351,0.1352,0.1357,0.1356,0.1355,0,0,0,0,0,0,0,0,0,0,0,0,0,0.1326,0.1325,0.1297,0.1297,0.1297,0.1302,0.1302,0.1302,0.1349,0.135,0.1352,0.1353,0.1357,0.1356,0.1355,0,0,0,0,0,0,0,0,0,0,0,0,0,0.132,0.1325,0.1297,0.1321,0.1323,0.1302,0.1302,0.1302,0.1348,0.135,0.1352,0.1354,0.1357,0.1356,0.1355,0.131,0,0,0.135,0.135,0,0,0,0,0,0,0,0,0.1321,0.1319,0.1317,0.1319,0.1321,0.1327,0.1314,0.1305,0.1348,0.1339,0.1352,0.1354,0.1345,0.1345,0.1342,0.1311,0.1311,0.135,0.1349,0.1348,0.1348,0,0,0,0,0,0,0,0.1321,0.1319,0.1299,0.1317,0.132,0.1331,0.1332,0.1312,0.1332,0.134,0.1343,0.1343,0.1347,0.1343,0.1342,0.1311,0.135,0.1349,0.1348,0.1347,0.1243,0.1242,0,0,0,0,0,0,0.1318,0.1319,0.1298,0.1299,0.1325,0.1329,0.133,0.1323,0.1332,0.1335,0.1342,0.1345,0.1345,0.1344,0.1343,0.1292,0.1349,0.1347,0.1346,0.1245,0.1243,0.1241,0,0,0,0,0,0,0.1319,0.1316,0.1298,0.131,0.1309,0.1327,0.1318,0.1322,0.1319,0.1334,0.1338,0.1335,0.1346,0.1345,0.1318,0.1293,0.1346,0.1345,0.1248,0.1245,0.1242,0.1189,0,0,0,0,0,0,0.1319,0.1316,0.1299,0.1309,0.1308,0.1274,0.1317,0.1321,0.1316,0.1321,0.1328,0.1331,0.1348,0.132,0.1317,0.1292,0.1344,0.125,0.1246,0.1243,0.1193,0.1185,0.1178,0,0,0,0,0,0.132,0.1284,0.1298,0.1296,0.1288,0.1272,0.1271,0.1291,0.1314,0.1298,0.1307,0.1331,0.1296,0.1317,0.1314,0.1288,0.1252,0.1247,0.1243,0.1197,0.1187,0.1178,0,0,0,0,0,0,0.127,0.1286,0.1302,0.1268,0.1268,0.128,0.126,0.128,0.1274,0.1278,0.1303,0.1304,0.1274,0.1278,0.1301,0.1245,0.1278,0.1273,0.1244,0.1234,0.1227,0.1226,0.1343,0,0,0,0,0,0.1256,0.1242,0.1256,0.1225,0.1224,0.1242,0.1236,0.1251,0.1253,0.1253,0.1261,0.1261,0.125,0.1242,0.1233,0.1194,0.1196,0.1174,0.1167,0.116,0.1156,0.1135,0.1126,0.1227,0.1227,0.1227,0,0,0.1225,0.1231,0.1221,0.1215,0.1217,0.1202,0.1242,0.1224,0.1213,0.125,0.1226,0.1231,0.1233,0.12,0.1186,0.1202,0.1128,0.1155,0.115,0.1148,0.113,0.112,0.1112,0.1224,0.1225,0.1225,0,0,0.1161,0.1164,0.1139,0.114,0.1143,0.1155,0.1149,0.1158,0.1163,0.1139,0.1166,0.1153,0.1134,0.1134,0.1132,0.1067,0.1089,0.1064,0.1023,0.1003,0.0995,0.0988,0.0965,0.0957,0.1059,0.1059,0.1059,0,0.1122,0.1101,0.1123,0.1104,0.11,0.1133,0.1107,0.1107,0.1107,0.1103,0.1122,0.1099,0.1102,0.107,0.1054,0.1051,0.1044,0.1063,0.0995,0.0988,0.0982,0.096,0.0952,0.1056,0.1056,0.1056,0.1057,0,0.1053,0.1038,0.1017,0.1016,0.101,0.0987,0.1006,0.0997,0.1013,0.1022,0.0997,0.1003,0.0995,0.0988,0.1003,0.0958,0.0968,0.099,0.1024,0.0969,0.0949,0.0941,0.1051,0.1052,0.1053,0.1054,0,0,0.0958,0.097,0.0962,0.0962,0.0967,0.0956,0.0935,0.0928,0.092,0.0918,0.0901,0.0884,0.0904,0.0901,0.0916,0.0899,0.0848,0.0923,0.0923,0.0909,0.0798,0.0782,0.0772,0.0862,0.086,0.0859,0.0798,0,0.0897,0.0862,0.0881,0.0843,0.083,0.0861,0.0842,0.0843,0.0852,0.0841,0.0851,0.0838,0.0866,0.0864,0.0848,0.0857,0.0826,0.0862,0.0846,0.0845,0.0845,0.0762,0.0745,0.0687,0.0791,0.0789,0.0788,0,0.0821,0.0817,0.0777,0.0786,0.0781,0.0764,0.0759,0.0748,0.075,0.0758,0.0754,0.0774,0.0753,0.0786,0.0758,0.0782,0.0776,0.078,0.0778,0.0778,0.0814,0.076,0.0669,0.066,0.0776,0.0777,0.0778,0,0.0756,0.074,0.0715,0.0714,0.0723,0.071,0.0713,0.0717,0.0712,0.0707,0.0704,0.0697,0.0693,0.0687,0.0704,0.0726,0.0673,0.0707,0.0679,0.0678,0.0667,0.0667,0.0574,0.0662,0.0662,0.0663,0.0663,0,0.0686,0.0661,0.0686,0.067,0.0643,0.0665,0.0638,0.0644,0.0647,0.0633,0.0659,0.0645,0.0668,0.0656,0.0669,0.0644,0.0642,0.0647,0.0651,0.0645,0.0645,0.0643,0.0647,0.066,0.0661,0.0661,0.0662,0,0.0609,0.0625,0.06,0.061,0.0612,0.0592,0.06,0.0586,0.0597,0.0578,0.0575,0.0591,0.0579,0.0595,0.0584,0.0593,0.0559,0.0568,0.0558,0.0561,0.0532,0.0535,0.0435,0.0423,0.0518,0.0517,0.0516,0,0.0564,0.0545,0.0554,0.0547,0.0548,0.0536,0.0531,0.0551,0.0545,0.0545,0.0531,0.0521,0.0514,0.0493,0.0503,0.0495,0.0505,0.047,0.0504,0.0498,0.0505,0.0506,0.0504,0.0464,0.0462,0.0461,0.0461,0,0.0481,0.049,0.0482,0.0476,0.0469,0.0465,0.0463,0.0456,0.0477,0.0468,0.0456,0.0451,0.044,0.043,0.0424,0.0427,0.0447,0.045,0.0443,0.0437,0.0432,0.0435,0.054,0.0452,0.0453,0.0454,0.0454,0.0455,0.0419,0.0404,0.0408,0.0398,0.0399,0.0396,0.0384,0.0392,0.0383,0.0376,0.0389,0.0373,0.0375,0.037,0.037,0.0358,0.0373,0.0363,0.0361,0.0358,0.0354,0.0434,0.0357,0.0358,0.0358,0.0358,0.0358,0,0.0338,0.0342,0.0333,0.033,0.0321,0.0341,0.034,0.0332,0.0318,0.0319,0.0312,0.0298,0.0288,0.0297,0.0289,0.0277,0.0287,0.0275,0.0276,0.0276,0.0341,0.0348,0.0267,0.0267,0.0267,0.0267,0.0267,0.0267,0.0295,0.0271,0.0281,0.0257,0.0261,0.0247,0.0245,0.0242,0.0243,0.0226,0.0218,0.0225,0.0229,0.0221,0.0213,0.0216,0.0211,0.0196,0.0202,0.0263,0.0272,0.028,0.0287,0.0195,0.0195,0.0139,0.0139,0.0138]},{"header":{"parameterUnit":"m.s-1","parameterCategory":1,"la1":30.2991,"la2":30.254,"lo1":-89.0895,"lo2":-89.0444,"dy":0.0017,"dx":0.0017,"nx":28,"ny":28,"refTime":"2024-05-25T09:00:00:Z","depth":0,"parameterNumber":3,"parameterNumberName":"V-component_of_WINDS"},"data":[0,0,0,0,0,0,0,0,0,0,0,0,0,0,0,0,0,0,0,0,0,0,0,0,0,0,0,0,0,0,0,0,0,0,0,0,0,0,0,0,0,0,0,0,0,0,0,0,0,0,0,0,0,0,0,0,0,0,3.4708,3.4708,0,3.468,3.4679,3.4679,3.4718,3.4719,3.472,3.4722,3.4685,3.4683,3.4681,0,0,0,0,0,0,0,0,0,0,0,0,0,3.4791,3.479,3.4708,3.4708,3.4708,3.468,3.4679,3.4679,3.4717,3.4719,3.4721,3.4722,3.4686,3.4683,3.4681,0,0,0,0,0,0,0,0,0,0,0,0,0,3.4758,3.4789,3.4708,3.4724,3.4725,3.468,3.4679,3.4679,3.4717,3.4719,3.4721,3.4723,3.4687,3.4684,3.468,3.4617,0,0,3.467,3.4668,0,0,0,0,0,0,0,0,3.476,3.4755,3.4722,3.4723,3.4724,3.4705,3.4695,3.4658,3.4716,3.472,3.4722,3.4724,3.4689,3.4686,3.4676,3.4615,3.4613,3.4669,3.4667,3.4666,3.4665,0,0,0,0,0,0,0,3.4762,3.4756,3.4697,3.4721,3.4722,3.473,3.4728,3.4688,3.4693,3.472,3.4722,3.4719,3.469,3.4679,3.4675,3.4613,3.467,3.4667,3.4664,3.4663,3.4499,3.4497,0,0,0,0,0,0,3.4763,3.4758,3.4698,3.4696,3.4748,3.4727,3.4724,3.4708,3.4693,3.4693,3.4717,3.4721,3.4684,3.4679,3.4674,3.4599,3.4666,3.4663,3.4661,3.4501,3.4498,3.4496,0,0,0,0,0,0,3.4765,3.4758,3.4699,3.4728,3.4721,3.4723,3.4705,3.4707,3.4695,3.4692,3.4692,3.4705,3.4685,3.4679,3.4631,3.4598,3.4661,3.4658,3.4504,3.45,3.4497,3.4448,0,0,0,0,0,0,3.4767,3.4758,3.4735,3.4727,3.4719,3.4658,3.4703,3.4705,3.469,3.4695,3.468,3.468,3.4686,3.4636,3.4628,3.4595,3.4655,3.4507,3.4502,3.4498,3.4453,3.4443,3.4435,0,0,0,0,0,3.477,3.4721,3.4734,3.4726,3.4691,3.4656,3.4651,3.4662,3.4687,3.4664,3.4661,3.468,3.4603,3.4631,3.4622,3.4587,3.4509,3.4504,3.4499,3.4456,3.4445,3.4436,0,0,0,0,0,0,3.4722,3.472,3.4734,3.4681,3.4669,3.4663,3.4633,3.465,3.4628,3.4633,3.4645,3.4641,3.4591,3.4584,3.4615,3.4525,3.456,3.4553,3.4531,3.452,3.4512,3.4514,3.4653,0,0,0,0,0,3.4706,3.468,3.4679,3.4632,3.4625,3.463,3.4615,3.4625,3.4612,3.4606,3.46,3.4584,3.4557,3.4538,3.4513,3.4452,3.4449,3.4424,3.4415,3.4408,3.4401,3.4369,3.4358,3.4479,3.4479,3.4479,0,0,3.4671,3.4667,3.4649,3.4622,3.4614,3.4585,3.4625,3.4593,3.4571,3.46,3.4556,3.4551,3.4534,3.448,3.4456,3.4473,3.4367,3.4402,3.4396,3.4393,3.4362,3.4351,3.4341,3.4475,3.4476,3.4477,0,0,3.4593,3.4587,3.4548,3.454,3.4527,3.4531,3.4522,3.4514,3.4512,3.4468,3.449,3.4463,3.4416,3.4403,3.4391,3.4309,3.4326,3.4301,3.4255,3.4223,3.4214,3.4205,3.4176,3.4165,3.4294,3.4294,3.4294,0,3.455,3.451,3.4525,3.4492,3.4479,3.4507,3.4467,3.4457,3.4435,3.4425,3.4446,3.4388,3.4378,3.4322,3.4302,3.4291,3.428,3.4302,3.4214,3.4206,3.4198,3.417,3.4159,3.4291,3.4291,3.4292,3.4292,0,3.4458,3.4429,3.4399,3.4381,3.4365,3.4327,3.4336,3.4317,3.4329,3.433,3.4285,3.4275,3.4248,3.4236,3.4245,3.418,3.4192,3.4213,3.4248,3.4183,3.4157,3.4147,3.4287,3.4288,3.4289,3.4289,0,0,3.4347,3.434,3.4328,3.4321,3.431,3.4287,3.4251,3.4228,3.4211,3.4196,3.4165,3.4125,3.4146,3.4131,3.414,3.4112,3.4048,3.4137,3.4136,3.412,3.3976,3.3959,3.3947,3.406,3.4058,3.4056,3.3977,0,3.4269,3.4209,3.4223,3.4163,3.4137,3.4164,3.4132,3.4121,3.4122,3.4098,3.4098,3.4069,3.4098,3.409,3.4064,3.4061,3.4019,3.4067,3.4029,3.4028,3.4032,3.3933,3.3916,3.3842,3.3967,3.3965,3.3964,0,3.4169,3.4153,3.4092,3.4087,3.4076,3.4048,3.4028,3.4005,3.3993,3.3995,3.398,3.3994,3.3957,3.3994,3.3943,3.3975,3.3961,3.3957,3.3954,3.395,3.3991,3.3926,3.3818,3.3807,3.3948,3.3949,3.3951,0,3.4094,3.4057,3.4016,3.4008,3.4001,3.3981,3.3976,3.3967,3.3952,3.3934,3.3924,3.3901,3.3888,3.3869,3.3876,3.3902,3.3822,3.386,3.3822,3.3822,3.3803,3.3804,3.3691,3.3795,3.3795,3.3795,3.3795,0,3.4005,3.3966,3.3982,3.3957,3.3914,3.3929,3.3886,3.3884,3.3876,3.3849,3.387,3.3844,3.3856,3.383,3.3835,3.3792,3.3785,3.3785,3.3787,3.3783,3.3783,3.3773,3.3778,3.3792,3.3793,3.3793,3.3794,0,3.3913,3.3923,3.388,3.3877,3.3876,3.3844,3.3841,3.3817,3.382,3.3786,3.3779,3.3782,3.3754,3.376,3.3727,3.373,3.3676,3.3684,3.368,3.3682,3.3644,3.3647,3.3519,3.3503,3.3618,3.3617,3.3616,0,3.3856,3.3827,3.3822,3.3808,3.3802,3.3777,3.3763,3.3777,3.3761,3.3747,3.3723,3.3697,3.3677,3.3629,3.3628,3.3603,3.3611,3.3568,3.3607,3.3604,3.3609,3.3611,3.3608,3.3559,3.3558,3.3557,3.3556,0,3.3752,3.3759,3.3739,3.372,3.3704,3.3689,3.3677,3.3663,3.3676,3.3656,3.3629,3.3613,3.3582,3.3555,3.3532,3.3526,3.3542,3.3544,3.3534,3.3529,3.3528,3.3528,3.3658,3.3547,3.3548,3.3548,3.3549,3.3549,3.3675,3.3651,3.3645,3.3622,3.3615,3.3603,3.358,3.3581,3.3559,3.3536,3.3546,3.3514,3.3502,3.3474,3.3466,3.344,3.3455,3.3441,3.3437,3.3433,3.3428,3.3534,3.3435,3.3436,3.3436,3.3436,3.3436,0,3.3572,3.357,3.3549,3.3533,3.3514,3.3535,3.3522,3.3505,3.3477,3.3467,3.3447,3.3416,3.339,3.3388,3.3363,3.3343,3.335,3.3336,3.3337,3.3335,3.3416,3.3427,3.3331,3.3331,3.3331,3.3331,3.3331,3.3331,3.3517,3.3477,3.3483,3.344,3.3438,3.3409,3.34,3.3389,3.3381,3.3345,3.3325,3.3325,3.3317,3.3292,3.327,3.3269,3.3259,3.3242,3.3245,3.3319,3.333,3.334,3.335,3.324,3.324,3.3167,3.3166,3.3165]}]]